Weather History for Independence, KS

Change the Weather History Date:

Sunday, March 2, 2014

  Actual Average (KCFV) Record (KCFV)
Temperature  
Mean Temperature 11 °F -  
Max Temperature 17 °F 48 °F 68 °F (2008)
Min Temperature 5 °F 29 °F 5 °F (2014)
Degree Days  
Heating Degree Days 54    
Moisture  
Dew Point 5 °F    
Average Humidity 79    
Maximum Humidity 93    
Minimum Humidity 73    
Precipitation  
Precipitation 0.00 in - - ()
Sea Level Pressure  
Sea Level Pressure 30.37 in    
Wind  
Wind Speed 20 mph (North)    
Max Wind Speed 28 mph    
Max Gust Speed 33 mph    
Visibility 7 miles    
Events Snow , Thunderstorm    
Averages and records for this station are not official NWS values.
T = Trace of Precipitation, MM = Missing Value Source: NWS Daily Summary

Daily Weather History Graph

Daily Weather History Graph

Search for Another Location

Airport:

Trip Planner

Search our weather history database for the weather conditions in past years. The results will help you decide how hot, cold, wet, or windy it might be!

Date:

Astronomy

Mar. 02, 2014 Rise Set
Actual Time 6:52 AM CST 6:18 PM CST
Civil Twilight 6:26 AM CST 6:44 PM CST
Nautical Twilight 5:56 AM CST 7:14 PM CST
Astronomical Twilight 5:26 AM CST 7:44 PM CST
Moon 7:27 AM CST (3/2) 8:11 PM CST (3/2)
Length of Visible Light 12h 17m
Length of Day
11h 25m
Waxing Crescent, 3% of the Moon is Illuminated
Mar 2
Waxing Crescent
Mar 8
First Quarter
Mar 16
Full
Mar 23
Last Quarter
Mar 30
New

Hourly Weather History & Observations

Time (CST) Temp. Windchill Dew Point Humidity Pressure Visibility Wind Dir Wind Speed Gust Speed Precip Events Conditions
12:15 AM 17.6 °F 2.2 °F 15.8 °F 93% 30.25 in 5.0 mi North 17.3 mph 25.3 mph N/A   Overcast
12:35 AM 17.6 °F 1.7 °F 14.0 °F 86% 30.23 in 7.0 mi North 18.4 mph 26.5 mph N/A   Overcast
12:55 AM 17.6 °F 2.7 °F 14.0 °F 86% 30.26 in 1.8 mi North 16.1 mph 19.6 mph N/A Snow Light Snow
1:15 AM 17.6 °F 0.9 °F 14.0 °F 86% 30.24 in 2.0 mi North 20.7 mph 28.8 mph N/A Snow Light Snow
1:35 AM 15.8 °F -2.3 °F 12.2 °F 86% 30.24 in 2.5 mi North 23.0 mph 28.8 mph N/A Snow Light Snow
1:55 AM 14.0 °F -3.0 °F 12.2 °F 93% 30.27 in 3.0 mi North 18.4 mph 24.2 mph N/A Snow Light Snow
2:15 AM 14.0 °F -2.0 °F 12.2 °F 93% 30.27 in 2.5 mi North 16.1 mph 24.2 mph N/A Snow Light Snow
2:30 AM 14.0 °F -4.7 °F 10.4 °F 86% 30.29 in 7.0 mi North 23.0 mph 26.5 mph N/A Snow Light Snow
2:55 AM 14.0 °F -3.9 °F 10.4 °F 86% 30.28 in 3.0 mi North 20.7 mph - N/A Snow Light Snow
3:15 AM 12.2 °F -5.8 °F 8.6 °F 85% 30.28 in 5.0 mi North 19.6 mph 26.5 mph N/A Snow Light Snow
3:35 AM 12.2 °F -6.7 °F 8.6 °F 85% 30.28 in 2.5 mi North 21.9 mph 28.8 mph N/A Snow Light Snow
3:55 AM 12.2 °F -6.3 °F 8.6 °F 85% 30.30 in 7.0 mi North 20.7 mph 29.9 mph N/A   Mostly Cloudy
4:15 AM 12.2 °F -4.8 °F 8.6 °F 85% 30.30 in 7.0 mi North 17.3 mph 24.2 mph N/A   Overcast
4:35 AM 12.2 °F -6.3 °F 6.8 °F 79% 30.32 in 10.0 mi North 20.7 mph 29.9 mph N/A   Overcast
4:55 AM 12.2 °F -7.1 °F 6.8 °F 79% 30.32 in 10.0 mi North 23.0 mph 27.6 mph N/A   Overcast
5:15 AM 10.4 °F -9.5 °F 6.8 °F 85% 30.33 in 10.0 mi North 23.0 mph 27.6 mph N/A   Overcast
5:35 AM 10.4 °F -8.2 °F 6.8 °F 85% 30.34 in 10.0 mi North 19.6 mph 27.6 mph N/A   Overcast
5:55 AM 10.4 °F -9.1 °F 6.8 °F 85% 30.35 in 10.0 mi North 21.9 mph 27.6 mph N/A   Overcast
6:15 AM 10.4 °F -7.2 °F 5.0 °F 79% 30.36 in 7.0 mi North 17.3 mph 28.8 mph N/A   Overcast
6:35 AM 10.4 °F -9.5 °F 6.8 °F 85% 30.36 in 1.8 mi North 23.0 mph 27.6 mph N/A Snow Light Snow
6:55 AM 10.4 °F -7.2 °F 5.0 °F 79% 30.37 in 5.0 mi NNE 17.3 mph - N/A   Overcast
7:10 AM 10.4 °F -8.6 °F 5.0 °F 79% 30.37 in 10.0 mi North 20.7 mph 25.3 mph N/A   Overcast
7:35 AM 10.4 °F -9.1 °F 5.0 °F 79% 30.39 in 10.0 mi North 21.9 mph - N/A   Overcast
7:55 AM 8.6 °F -12.7 °F 3.2 °F 79% 30.39 in 10.0 mi North 25.3 mph 32.2 mph N/A   Overcast
8:15 AM 8.6 °F -11.4 °F 3.2 °F 79% 30.40 in 10.0 mi North 21.9 mph - N/A   Overcast
8:35 AM 10.4 °F -9.5 °F 5.0 °F 79% 30.39 in 10.0 mi NNE 23.0 mph - N/A   Overcast
8:55 AM 10.4 °F -6.6 °F 5.0 °F 79% 30.42 in 10.0 mi NNE 16.1 mph 29.9 mph N/A   Overcast
9:15 AM 10.4 °F -7.7 °F 3.2 °F 73% 30.41 in 10.0 mi NNE 18.4 mph 23.0 mph N/A   Overcast
9:35 AM 10.4 °F -7.7 °F 5.0 °F 79% 30.40 in 10.0 mi NNE 18.4 mph 25.3 mph N/A   Overcast
9:55 AM 10.4 °F -9.1 °F 5.0 °F 79% 30.38 in 10.0 mi NNE 21.9 mph 28.8 mph N/A   Overcast
10:15 AM 10.4 °F -7.7 °F 5.0 °F 79% 30.42 in 10.0 mi North 18.4 mph - N/A   Overcast
10:35 AM 10.4 °F -10.3 °F 5.0 °F 79% 30.40 in 10.0 mi North 25.3 mph - N/A   Overcast
10:55 AM 12.2 °F -5.3 °F 5.0 °F 73% 30.40 in 10.0 mi NNE 18.4 mph 25.3 mph N/A   Overcast
11:15 AM 12.2 °F -6.3 °F 5.0 °F 73% 30.41 in 10.0 mi NNE 20.7 mph 27.6 mph N/A   Overcast
11:35 AM 12.2 °F -5.3 °F 6.8 °F 79% 30.44 in 10.0 mi North 18.4 mph 25.3 mph N/A   Overcast
11:55 AM 12.2 °F -5.3 °F 5.0 °F 73% 30.43 in 10.0 mi North 18.4 mph - N/A   Overcast
12:15 PM 12.2 °F -7.1 °F 6.8 °F 79% 30.41 in 7.0 mi NNE 23.0 mph 28.8 mph N/A   Overcast
12:35 PM 12.2 °F -6.7 °F 5.0 °F 73% 30.39 in 5.0 mi North 21.9 mph 28.8 mph N/A Snow Light Snow
12:55 PM 12.2 °F -5.8 °F 5.0 °F 73% 30.40 in 10.0 mi NNE 19.6 mph 27.6 mph N/A   Overcast
1:15 PM 12.2 °F -8.6 °F 5.0 °F 73% 30.36 in 10.0 mi NNE 27.6 mph 33.4 mph N/A   Overcast
1:35 PM 12.2 °F -6.7 °F 5.0 °F 73% 30.37 in 7.0 mi North 21.9 mph 27.6 mph N/A   Overcast
1:55 PM 12.2 °F -6.7 °F 5.0 °F 73% 30.37 in 10.0 mi North 21.9 mph 28.8 mph N/A Thunderstorm Overcast
2:15 PM 12.2 °F -7.5 °F 5.0 °F 73% 30.36 in 10.0 mi NNE 24.2 mph 33.4 mph N/A   Overcast
2:35 PM 12.2 °F -7.9 °F 5.0 °F 73% 30.37 in 10.0 mi North 25.3 mph 31.1 mph N/A   Overcast
2:55 PM 12.2 °F -7.5 °F 5.0 °F 73% 30.34 in 10.0 mi North 24.2 mph 32.2 mph N/A   Overcast
3:15 PM 12.2 °F -7.9 °F 5.0 °F 73% 30.32 in 10.0 mi NNE 25.3 mph 33.4 mph N/A   Overcast
3:35 PM 12.2 °F -6.7 °F 5.0 °F 73% 30.34 in 10.0 mi North 21.9 mph 32.2 mph N/A   Overcast
3:55 PM 10.4 °F -9.1 °F 5.0 °F 79% 30.37 in 10.0 mi North 21.9 mph 32.2 mph N/A   Overcast
4:15 PM 10.4 °F -9.1 °F 3.2 °F 73% 30.37 in 10.0 mi North 21.9 mph 29.9 mph N/A   Overcast
4:35 PM 10.4 °F -9.5 °F 3.2 °F 73% 30.35 in 10.0 mi North 23.0 mph 31.1 mph N/A   Overcast
4:55 PM 10.4 °F -7.7 °F 3.2 °F 73% 30.38 in 10.0 mi North 18.4 mph 27.6 mph N/A   Overcast
5:15 PM 10.4 °F -11.0 °F 3.2 °F 73% 30.36 in 10.0 mi North 27.6 mph 31.1 mph N/A   Overcast
5:35 PM 10.4 °F -7.2 °F 3.2 °F 73% 30.39 in 10.0 mi North 17.3 mph - N/A   Overcast
5:55 PM 10.4 °F -7.7 °F 3.2 °F 73% 30.39 in 4.0 mi NNE 18.4 mph 26.5 mph N/A Snow Light Snow
6:15 PM 8.6 °F -8.9 °F 3.2 °F 79% 30.40 in 3.0 mi North 16.1 mph 24.2 mph N/A Snow Light Snow
6:35 PM 8.6 °F -10.0 °F 3.2 °F 79% 30.40 in 4.0 mi North 18.4 mph 25.3 mph N/A Snow Light Snow
6:55 PM 8.6 °F -11.4 °F 3.2 °F 79% 30.42 in 5.0 mi North 21.9 mph 26.5 mph N/A Snow Light Snow
7:15 PM 8.6 °F -11.9 °F 3.2 °F 79% 30.42 in 5.0 mi North 23.0 mph 26.5 mph N/A Snow Light Snow
7:35 PM 8.6 °F -12.7 °F 3.2 °F 79% 30.41 in 4.0 mi North 25.3 mph 31.1 mph N/A Snow Light Snow
7:55 PM 8.6 °F -12.7 °F 1.4 °F 73% 30.38 in 4.0 mi North 25.3 mph 28.8 mph N/A Snow Light Snow
8:15 PM 8.6 °F -10.0 °F 1.4 °F 73% 30.40 in 5.0 mi North 18.4 mph 28.8 mph N/A Snow Light Snow
8:35 PM 8.6 °F -10.5 °F 1.4 °F 73% 30.42 in 7.0 mi North 19.6 mph 28.8 mph N/A Snow Light Snow
8:55 PM 8.6 °F -9.5 °F 1.4 °F 73% 30.43 in 10.0 mi North 17.3 mph 25.3 mph N/A Snow Light Snow
9:15 PM 8.6 °F -11.0 °F 1.4 °F 73% 30.44 in 7.0 mi North 20.7 mph - N/A Snow Light Snow
9:35 PM 6.8 °F -13.4 °F 1.4 °F 79% 30.46 in 4.0 mi North 20.7 mph - N/A Snow Light Snow
9:55 PM 6.8 °F -12.4 °F 1.4 °F 79% 30.48 in 2.0 mi North 18.4 mph 24.2 mph N/A Snow Light Snow
10:15 PM 6.8 °F -11.3 °F 1.4 °F 79% 30.50 in 2.0 mi North 16.1 mph - N/A Snow Light Snow
10:35 PM 5.0 °F -14.2 °F 1.4 °F 85% 30.49 in 1.5 mi North 17.3 mph - N/A Snow Light Snow
10:55 PM 5.0 °F -13.0 °F 1.4 °F 85% 30.49 in 1.8 mi North 15.0 mph 20.7 mph N/A Snow Light Snow
11:15 PM 5.0 °F -14.7 °F 1.4 °F 85% 30.47 in 2.0 mi North 18.4 mph 21.9 mph N/A Snow Light Snow
11:35 PM 5.0 °F -15.2 °F 1.4 °F 85% 30.45 in 1.8 mi North 19.6 mph 26.5 mph N/A Snow Light Snow
11:55 PM 5.0 °F -16.2 °F 1.4 °F 85% 30.47 in 2.5 mi North 21.9 mph 26.5 mph N/A Snow Light Snow